Manhattan, KS

4:24 AM CDT on May 29, 2017 (GMT -0500)
Manhattan Regional

Weather History for KMHK - May, 2013

Change the Weather History Date:

Monday, May 13, 2013

  Actual Average Record
Temperature  
Mean Temperature 65 °F 63 °F  
Max Temperature 83 °F 75 °F 89 °F (1998)
Min Temperature 46 °F 50 °F 32 °F (1997)
Degree Days  
Heating Degree Days 0 5  
Month to date heating degree days 142 75  
Since 1 July heating degree days 5160 5256  
Cooling Degree Days 0 2  
Month to date cooling degree days 2 18  
Year to date cooling degree days 19 35  
Growing Degree Days 15 (Base 50)    
Moisture  
Dew Point 48 °F    
Average Humidity 57    
Maximum Humidity 77    
Minimum Humidity 37    
Precipitation  
Precipitation 0.00 in 0.12 in 0.50 in (2015)
Month to date precipitation 2.07 1.70  
Year to date precipitation 8.12 8.42  
Sea Level Pressure  
Sea Level Pressure 30.02 in    
Wind  
Wind Speed 5 mph (South)    
Max Wind Speed 16 mph    
Max Gust Speed 23 mph    
Visibility 10 miles    
Events      
T = Trace of Precipitation, MM = Missing Value Source: NWS Daily Summary

Daily Weather History Graph

Daily Weather History Graph

Search for Another Location

Airport or City:

Trip Planner

Search our weather history database for the weather conditions in past years. The results will help you decide how hot, cold, wet, or windy it might be!

Date:

Astronomy

May. 13, 2013 Rise Set
Actual Time 6:15 AM CDT 8:31 PM CDT
Civil Twilight 5:45 AM CDT 9:01 PM CDT
Nautical Twilight 5:08 AM CDT 9:38 PM CDT
Astronomical Twilight 4:27 AM CDT 10:19 PM CDT
Moon 9:02 AM CDT (5/13) 11:41 PM CDT (5/13)
Length of Visible Light 15h 16m
Length of Day
14h 16m
Waxing Crescent, 12% of the Moon is Illuminated
May 13
Waxing Crescent
May 17
First Quarter
May 24
Full
May 31
Last Quarter
Jun 8
New

Hourly Weather History & Observations

Time (CDT) Temp. Heat Index Dew Point Humidity Pressure Visibility Wind Dir Wind Speed Gust Speed Precip Events Conditions
12:52 AM 51.1 °F - 44.1 °F 77% 30.13 in 10.0 mi Calm Calm - N/A   Clear
1:52 AM 51.1 °F - 42.1 °F 71% 30.12 in 10.0 mi Calm Calm - N/A   Clear
2:52 AM 48.0 °F - 41.0 °F 77% 30.10 in 10.0 mi South 3.5 mph - N/A   Clear
3:52 AM 48.9 °F - 41.0 °F 74% 30.09 in 10.0 mi Calm Calm - N/A   Clear
4:52 AM 51.1 °F - 42.1 °F 71% 30.09 in 10.0 mi East 3.5 mph - N/A   Clear
5:52 AM 50.0 °F - 41.0 °F 71% 30.08 in 10.0 mi Calm Calm - N/A   Clear
6:52 AM 48.9 °F - 41.0 °F 74% 30.09 in 10.0 mi NNE 3.5 mph - N/A   Clear
7:52 AM 54.0 °F - 43.0 °F 66% 30.09 in 10.0 mi Calm Calm - N/A   Clear
8:52 AM 60.1 °F - 45.0 °F 57% 30.09 in 10.0 mi SE 5.8 mph - N/A   Clear
9:52 AM 64.0 °F - 46.0 °F 52% 30.07 in 10.0 mi SSE 6.9 mph - N/A   Clear
10:52 AM 68.0 °F - 46.0 °F 45% 30.06 in 10.0 mi SE 5.8 mph - N/A   Clear
11:52 AM 72.0 °F - 48.0 °F 43% 30.06 in 10.0 mi Variable 3.5 mph - N/A   Clear
12:52 PM 75.9 °F - 51.1 °F 42% 30.04 in 10.0 mi Variable 5.8 mph - N/A   Clear
1:52 PM 79.0 °F - 52.0 °F 39% 30.02 in 10.0 mi South 8.1 mph - N/A   Clear
3:52 PM 82.0 °F 81.2 °F 53.1 °F 37% 29.99 in 10.0 mi South 10.4 mph - N/A   Clear
4:52 PM 82.0 °F 81.2 °F 53.1 °F 37% 29.96 in 10.0 mi South 12.7 mph - N/A   Clear
5:52 PM 82.0 °F 81.2 °F 53.1 °F 37% 29.94 in 10.0 mi South 11.5 mph 19.6 mph N/A   Clear
6:52 PM 80.6 °F 80.3 °F 53.6 °F 39% 29.94 in 10.0 mi SSW 12.7 mph 18.4 mph N/A   Clear
7:52 PM 78.1 °F - 55.0 °F 45% 29.92 in 10.0 mi South 5.8 mph - N/A   Clear
8:52 PM 68.0 °F - 55.9 °F 65% 29.92 in 10.0 mi Calm Calm - N/A   Clear
9:52 PM 66.0 °F - 55.9 °F 70% 29.91 in 10.0 mi South 4.6 mph - N/A   Clear
10:52 PM 68.0 °F - 55.0 °F 63% 29.92 in 10.0 mi SW 5.8 mph - N/A   Clear
11:52 PM 64.9 °F - 55.9 °F 73% 29.90 in 10.0 mi SW 4.6 mph - N/A   Clear